Weather History for Whidbey Island, WA

Change the Weather History Date:

Friday, October 5, 2012

  Actual Average Record
Temperature  
Mean Temperature 47 °F -  
Max Temperature 59 °F 58 °F 75 °F (2005)
Min Temperature 37 °F 43 °F 36 °F (2000)
Degree Days  
Heating Degree Days 18    
Moisture  
Dew Point 40 °F    
Average Humidity 77    
Maximum Humidity 89    
Minimum Humidity 51    
Precipitation  
Precipitation 0.00 in - - ()
Sea Level Pressure  
Sea Level Pressure 30.29 in    
Wind  
Wind Speed 3 mph (SSW)    
Max Wind Speed 9 mph    
Max Gust Speed -    
Visibility 10 miles    
Events Fog    
Averages and records for this station are not official NWS values.
T = Trace of Precipitation, MM = Missing Value Source: NWS Daily Summary

Daily Weather History Graph

Daily Weather History Graph

Search for Another Location

Airport:

Trip Planner

Search our weather history database for the weather conditions in past years. The results will help you decide how hot, cold, wet, or windy it might be!

Date:

Astronomy

Oct. 05, 2012 Rise Set
Actual Time 7:16 AM PDT 6:40 PM PDT
Civil Twilight 6:45 AM PDT 7:11 PM PDT
Nautical Twilight 6:09 AM PDT 7:47 PM PDT
Astronomical Twilight 5:32 AM PDT 8:24 PM PDT
Moon 9:45 PM PDT (10/5) 12:51 PM PDT (10/5)
Length of Visible Light 12h 26m
Length of Day
11h 23m
Waning Gibbous, 73% of the Moon is Illuminated
Oct 5
Waning Gibbous
Oct 8
Last Quarter
Oct 15
New
Oct 21
First Quarter
Oct 29
Full

Hourly Weather History & Observations

Time (PDT) Temp. Windchill Dew Point Humidity Pressure Visibility Wind Dir Wind Speed Gust Speed Precip Events Conditions
12:56 AM 42.1 °F - 37.0 °F 82% 30.30 in 10.0 mi Calm Calm - N/A   Clear
1:56 AM 39.9 °F - 36.0 °F 86% 30.32 in 10.0 mi Calm Calm - N/A   Clear
2:56 AM 37.0 °F 34.5 °F 34.0 °F 89% 30.31 in 10.0 mi East 3.5 mph - N/A   Clear
3:56 AM 37.0 °F 33.3 °F 34.0 °F 89% 30.31 in 10.0 mi SE 4.6 mph - N/A   Clear
4:56 AM 37.9 °F 35.5 °F 35.1 °F 89% 30.30 in 10.0 mi ESE 3.5 mph - N/A   Clear
5:56 AM 37.9 °F - 35.1 °F 89% 30.31 in 10.0 mi Calm Calm - N/A   Clear
6:56 AM 39.0 °F 35.7 °F 36.0 °F 89% 30.32 in 10.0 mi SSE 4.6 mph - N/A   Clear
7:56 AM 39.2 °F 37.0 °F 35.6 °F 87% 30.33 in 10.0 mi SE 3.5 mph - N/A Fog Patches of Fog
8:56 AM 46.0 °F - 43.0 °F 89% 30.33 in 10.0 mi Calm Calm - N/A   Clear
9:56 AM 51.1 °F - 45.0 °F 80% 30.34 in 10.0 mi WNW 4.6 mph - N/A   Clear
10:56 AM 53.1 °F - 42.1 °F 66% 30.34 in 10.0 mi WNW 5.8 mph - N/A   Clear
11:56 AM 54.0 °F - 41.0 °F 62% 30.33 in 10.0 mi West 5.8 mph - N/A   Clear
12:56 PM 57.0 °F - 39.0 °F 51% 30.32 in 10.0 mi West 5.8 mph - N/A   Clear
1:56 PM 57.9 °F - 42.1 °F 56% 30.30 in 10.0 mi WNW 5.8 mph - N/A   Clear
2:56 PM 55.9 °F - 45.0 °F 67% 30.29 in 10.0 mi West 9.2 mph - N/A   Clear
3:56 PM 55.9 °F - 45.0 °F 67% 30.28 in 10.0 mi West 5.8 mph - N/A   Clear
4:56 PM 55.9 °F - 42.1 °F 60% 30.26 in 10.0 mi WSW 8.1 mph - N/A   Clear
5:56 PM 53.1 °F - 44.1 °F 71% 30.25 in 10.0 mi West 3.5 mph - N/A   Clear
6:56 PM 51.1 °F - 42.1 °F 71% 30.25 in 10.0 mi Calm Calm - N/A   Partly Cloudy
7:56 PM 48.0 °F - 42.1 °F 80% 30.25 in 10.0 mi Calm Calm - N/A   Partly Cloudy
8:56 PM 45.0 °F - 39.9 °F 82% 30.25 in 10.0 mi Calm Calm - N/A   Partly Cloudy
9:56 PM 43.0 °F 39.5 °F 39.0 °F 86% 30.25 in 10.0 mi SE 5.8 mph - N/A   Partly Cloudy
10:56 PM 46.0 °F 43.1 °F 39.9 °F 79% 30.27 in 10.0 mi ESE 5.8 mph - N/A   Clear
11:56 PM 42.1 °F 40.2 °F 37.0 °F 82% 30.27 in 10.0 mi ESE 3.5 mph - N/A   Clear